Temp
74 74 74 74 74 74 75 75 75 76 76 77 78 78 78 78 78 78 78 78 78 77 76 76 75 75 75 75 75 75 74 74 73 72 71 70 70 70 69 68 66 64 63 62 60 59 58 58 56 55 55 55 54 54 54 54 53 52 51 51 51 50 50 49 48 48 48 48 47
74 74 74 73 73 73 74 74 75 75 76 77 77 77 77 77 77 77 77 77 78 77 77 77 77 76 76 75 75 74 74 74 73 72 71 69 70 69 68 65 65 64 62 61 59 58 57 57 56 55 55 55 54 54 53 53 53 52 51 50 50 50 49 48 48 47 47 47 46
74 75 75 74 74 74 74 74 75 76 76 77 77 77 77 77 77 76 77 77 77 78 78 77 78 77 77 76 76 75 75 74 74 73 71 70 69 69 67 65 64 63 62 60 59 58 57 56 56 55 55 54 54 53 53 52 52 51 50 50 50 49 48 47 47 47 46 46 45
74 74 74 74 75 75 75 75 75 76 76 76 77 77 77 77 77 77 77 77 78 78 78 78 78 78 78 77 76 76 75 74 74 73 72 71 69 68 66 65 63 62 61 60 59 58 57 57 56 55 54 54 53 53 52 51 51 50 50 50 49 48 48 47 47 46 46 45 45
73 73 73 73 74 74 74 75 75 75 75 75 75 76 76 76 76 76 77 77 77 77 77 78 78 77 77 75 74 74 74 73 72 72 72 71 70 68 66 65 64 63 62 61 59 59 58 57 55 54 53 53 53 53 52 51 50 49 49 48 48 47 47 46 46 46 45 45 45
71 72 72 73 73 73 74 74 74 74 74 74 74 75 75 75 76 76 76 76 76 77 77 76 76 75 74 73 72 71 71 71 70 70 70 70 69 68 67 65 64 63 62 61 60 60 58 57 55 54 53 53 53 53 52 51 50 49 48 47 47 47 46 46 45 45 45 45 44
71 71 71 71 72 72 73 73 73 74 74 74 74 74 74 74 75 75 75 75 75 75 75 74 74 74 73 72 71 69 68 68 67 67 67 65 65 64 64 63 63 62 61 60 59 58 57 56 54 53 53 53 52 52 51 50 49 48 48 47 47 46 46 45 45 45 44 44 43
70 70 70 70 71 71 71 72 72 73 73 74 74 74 74 74 74 74 74 74 74 74 73 73 73 73 73 72 70 69 67 66 65 64 63 61 61 61 61 61 60 60 59 58 56 56 55 54 54 53 52 51 50 50 50 50 49 48 47 46 45 45 45 44 44 44 44 44 43
69 69 69 69 70 70 70 71 71 72 72 72 73 73 73 73 73 73 72 72 72 72 73 73 72 72 71 70 69 68 66 65 63 61 60 60 59 59 59 58 58 57 56 56 55 55 55 54 53 53 51 50 49 49 49 50 48 47 46 45 44 44 44 43 43 43 44 44 44
67 68 68 68 68 69 69 70 70 71 71 71 71 72 71 70 71 71 71 71 71 71 71 71 71 70 69 68 67 66 64 63 61 59 59 58 58 57 56 56 56 56 55 56 56 55 54 53 51 50 49 48 48 48 48 49 48 46 45 44 43 43 43 43 43 43 43 43 43
66 67 67 67 68 68 69 69 70 70 71 70 71 71 71 70 70 70 70 70 69 69 69 69 68 68 67 66 65 64 62 61 59 58 57 57 57 56 55 55 55 55 55 55 54 53 52 51 49 48 48 47 47 48 48 47 47 46 44 43 43 42 42 42 42 42 42 42 43
66 66 66 66 67 68 68 69 69 70 70 70 70 70 70 70 69 68 68 68 67 66 66 66 66 65 64 63 63 62 61 60 59 58 57 56 57 56 55 55 54 54 54 53 52 51 50 49 48 48 46 46 46 47 47 46 45 44 43 43 42 42 42 42 42 42 42 42 42
65 65 65 66 66 67 68 68 69 70 70 70 69 69 69 68 67 67 66 66 65 64 64 64 64 63 62 62 61 61 61 60 59 58 57 56 56 55 54 54 53 53 52 51 51 50 49 49 48 47 46 46 46 46 46 46 45 44 43 43 43 42 42 42 42 42 42 42 41
64 64 65 66 66 67 68 68 69 69 69 69 69 69 68 67 66 66 65 64 63 63 63 63 62 62 61 61 61 60 60 59 59 58 57 56 56 55 54 53 53 51 50 50 50 49 48 48 47 47 47 46 46 45 45 45 44 44 43 43 43 43 42 42 42 42 41 41 41
64 64 64 65 66 67 67 68 68 68 68 67 67 67 66 65 64 63 63 62 62 62 62 62 61 61 61 61 61 61 60 60 59 58 56 55 55 54 53 53 52 50 49 49 49 48 48 47 47 46 46 45 45 44 44 44 44 44 44 44 43 42 42 41 41 41 40 40 39
63 63 64 64 65 66 66 67 67 67 66 66 65 64 63 62 61 61 60 60 60 59 59 59 59 59 59 59 60 60 59 59 58 57 56 54 53 52 52 51 50 49 48 47 47 47 47 46 46 45 44 44 43 43 43 43 43 43 43 43 42 41 41 41 40 40 40 40 39
62 62 63 63 64 64 65 65 65 65 64 64 62 61 60 60 60 59 58 58 58 57 57 57 57 57 57 57 57 57 57 56 56 55 54 53 52 51 50 50 49 48 47 46 46 46 46 45 45 44 44 43 43 43 42 42 42 42 42 42 41 41 41 40 40 40 40 39 39
60 61 61 62 62 62 62 62 62 62 61 61 60 59 58 58 58 58 57 57 57 57 56 56 55 55 55 55 56 55 55 54 54 53 53 52 51 50 49 49 48 47 46 46 45 45 44 44 44 44 43 43 42 42 42 42 41 41 41 41 41 40 40 40 40 40 40 40 39
58 59 59 60 60 60 60 60 59 59 59 58 57 56 56 56 56 56 56 55 55 55 55 54 54 53 53 53 53 53 53 52 52 51 51 50 49 48 48 47 46 46 45 45 44 44 44 44 43 43 43 42 42 41 41 41 41 41 40 40 40 40 40 40 40 40 40 40 39
56 56 57 57 58 58 57 57 57 56 56 56 55 54 53 53 53 53 53 52 52 52 52 51 51 50 50 50 50 49 49 49 49 49 48 48 47 47 46 46 45 45 44 44 44 43 43 43 43 42 42 42 41 41 41 40 40 40 40 40 40 40 40 40 40 40 40 40 39
54 54 55 55 56 56 55 55 55 54 54 53 52 51 51 50 50 50 50 50 50 50 49 49 48 48 48 48 47 47 47 47 47 47 47 46 46 46 46 46 45 45 44 44 44 44 43 43 42 42 42 41 41 41 40 40 40 40 40 40 40 41 41 41 41 41 40 40 39
52 53 53 54 54 54 54 53 53 52 52 51 51 50 50 49 48 48 48 48 48 47 47 46 46 46 46 46 46 45 45 45 45 45 45 45 45 45 45 46 45 44 43 43 43 43 43 43 42 42 42 41 41 41 41 40 40 40 40 41 41 40 40 40 39 39 39 39 39
51 51 52 52 52 52 51 51 51 50 50 50 49 49 48 48 47 47 47 47 46 46 45 45 45 45 45 44 45 45 44 44 44 44 44 44 44 44 44 44 43 42 42 42 42 42 42 42 42 42 42 41 41 41 41 41 41 40 40 39 39 38 37 37 36 36 36 37 38
50 50 51 51 50 50 49 49 49 48 48 47 47 47 47 46 46 46 46 46 45 45 45 45 44 44 44 44 44 44 44 43 43 43 43 43 43 42 42 42 42 41 41 42 42 42 42 41 41 41 41 41 41 41 42 41 41 40 39 38 37 36 36 35 36 36 36 37 37
48 49 49 49 48 48 48 47 47 46 46 46 46 46 46 46 46 46 45 45 45 45 45 44 44 45 45 45 45 44 44 43 42 42 42 42 42 42 42 41 41 42 42 42 43 43 43 43 42 42 41 41 41 41 41 41 40 39 39 38 37 36 36 35 35 36 36 37 37
47 47 47 47 47 46 46 46 45 45 45 45 45 45 45 45 45 45 45 44 44 44 44 44 44 44 45 44 44 44 43 43 42 42 41 41 41 41 41 41 42 42 43 44 44 44 44 44 44 43 42 42 41 41 40 40 40 39 39 38 37 37 36 35 35 35 36 36 36
46 46 46 46 45 45 45 45 45 45 45 45 44 44 44 45 45 44 44 43 43 43 43 43 44 44 44 44 43 42 42 42 42 42 42 41 42 42 42 41 42 42 43 44 45 45 45 44 44 43 42 41 40 39 39 38 39 38 38 37 37 36 35 35 34 34 35 35 36
45 45 45 45 44 44 44 45 44 44 44 44 44 44 44 44 44 43 43 43 43 43 43 42 43 43 43 43 42 42 42 42 42 42 42 42 43 42 42 42 42 43 44 45 45 45 44 44 43 42 41 40 39 38 38 37 37 37 36 36 36 35 35 34 34 34 34 34 35
44 44 44 43 43 43 43 43 43 43 44 44 44 44 44 44 43 43 43 42 42 42 42 42 42 42 42 42 42 42 42 43 43 43 43 43 43 43 43 43 43 43 44 45 44 44 44 43 42 42 41 40 38 37 37 36 36 36 35 35 35 34 34 34 34 34 34 34 34
43 43 43 43 43 42 43 43 43 43 43 43 43 43 43 42 42 42 42 42 42 41 42 42 42 42 42 42 42 43 43 43 44 44 44 43 43 43 43 43 43 43 44 45 44 44 43 42 42 41 40 39 37 36 35 35 35 35 35 34 34 34 34 34 34 34 34 34 34
43 42 42 42 42 42 42 42 42 42 43 42 42 42 42 42 41 41 41 41 41 42 42 43 42 42 42 43 43 43 43 42 43 43 42 42 42 41 41 41 42 42 43 44 43 43 42 42 41 40 39 39 37 35 35 35 35 34 34 34 34 34 34 34 34 34 34 35 34
42 42 42 41 41 41 41 41 41 42 42 42 41 41 41 41 41 41 42 42 42 42 43 43 42 42 42 42 42 41 41 40 40 40 40 40 39 39 40 40 40 41 42 43 43 42 42 41 40 39 39 38 36 35 34 34 34 34 34 34 34 34 34 34 34 34 34 34 34
41 41 41 41 41 41 41 41 41 41 41 41 40 40 40 40 41 41 41 41 42 42 42 42 41 41 40 40 40 39 39 39 39 39 39 39 39 39 39 39 40 41 42 42 42 41 41 40 40 39 38 37 36 35 34 34 34 34 34 34 34 34 34 34 34 34 34 34 34
41 40 40 40 40 40 40 40 40 40 40 40 40 40 40 40 40 40 40 40 41 41 40 40 40 40 40 40 39 39 39 39 39 39 39 39 39 39 38 38 39 40 41 42 41 41 40 40 39 38 38 37 35 34 34 34 34 33 33 33 33 33 33 34 34 34 34 35 36
40 40 40 40 40 40 40 40 40 39 39 39 39 39 39 39 39 39 40 40 40 40 40 40 40 40 40 40 39 39 38 38 38 38 38 38 38 37 37 37 38 39 41 41 40 40 39 39 38 38 37 36 34 34 34 33 33 33 33 33 33 33 33 34 34 35 36 37 38
39 39 39 39 39 39 39 39 39 39 39 39 39 39 39 39 39 39 40 40 40 39 39 39 39 39 38 38 38 38 38 37 37 37 37 37 36 36 36 36 36 38 39 39 39 39 38 38 37 37 36 35 34 33 33 33 33 33 33 33 33 34 34 35 36 37 38 38 38
39 39 38 38 38 38 38 39 39 38 38 38 39 39 39 39 39 39 39 40 39 38 37 37 37 37 37 36 36 36 36 37 36 36 36 36 35 35 35 35 35 36 38 39 38 38 38 37 37 36 35 34 34 33 33 34 34 34 34 35 35 36 37 37 38 38 38 38 37
38 37 37 37 36 37 37 37 37 37 37 37 38 38 39 39 38 38 39 39 38 37 36 36 36 36 36 36 35 35 35 36 36 35 35 35 35 35 34 34 35 36 37 38 38 38 38 37 37 36 36 35 35 35 35 36 36 36 36 36 37 37 38 38 38 38 38 37 37
37 36 36 35 35 35 35 36 36 36 36 37 37 38 38 38 38 38 38 38 38 37 36 36 36 36 36 36 36 35 35 36 36 35 34 34 35 35 35 35 35 36 37 38 38 38 38 38 38 38 38 37 38 38 38 38 38 37 37 37 37 38 38 39 39 39 38 37 37
37 36 36 35 35 35 35 35 35 36 36 37 37 37 37 38 38 38 38 38 38 38 37 37 36 37 37 37 36 35 35 35 36 35 35 35 36 36 37 36 36 37 38 39 39 39 39 39 39 40 40 40 40 40 39 39 38 38 38 38 38 38 38 39 39 39 39 39 38
38 38 37 37 37 37 36 36 36 37 37 37 37 37 38 39 39 39 39 39 39 38 38 38 38 38 38 37 37 35 35 35 36 36 36 36 37 38 38 38 38 38 39 39 40 40 40 40 40 41 41 41 41 41 40 40 39 38 38 38 38 38 38 39 39 39 39 39 39
MSLP
1010.65 1010.57 1010.53 1010.53 1010.49 1010.45 1010.37 1010.37 1010.21 1010.09 1010.05 1010.01 1009.97 1009.93 1009.93 1009.97 1009.97 1009.97 1009.97 1010.05 1010.13 1010.25 1010.37 1010.53 1010.65 1010.77 1010.85 1010.93 1011.01 1011.05 1011.13 1011.21 1011.33 1011.49 1011.61 1011.77 1011.93 1012.09 1012.33 1012.49 1012.65 1012.97 1013.41 1013.77 1013.93 1013.93 1013.93 1013.97 1014.05 1014.17 1014.21 1014.41 1014.77 1014.93 1015.01 1015.05 1015.13 1015.33 1015.49 1015.57 1015.65 1015.81 1016.01 1016.21 1016.29 1016.37 1016.41 1016.49 1016.53
1010.61 1010.57 1010.53 1010.53 1010.53 1010.53 1010.49 1010.41 1010.37 1010.25 1010.17 1010.09 1010.05 1010.01 1010.01 1010.01 1010.05 1010.01 1010.01 1010.05 1010.05 1010.13 1010.21 1010.37 1010.41 1010.49 1010.65 1010.77 1010.85 1010.97 1011.05 1011.17 1011.25 1011.41 1011.65 1011.81 1011.97 1012.13 1012.37 1012.53 1012.69 1013.01 1013.41 1013.73 1013.89 1013.93 1013.97 1014.05 1014.13 1014.17 1014.21 1014.33 1014.57 1014.77 1014.89 1014.93 1015.05 1015.17 1015.33 1015.45 1015.53 1015.73 1015.97 1016.13 1016.21 1016.33 1016.41 1016.49 1016.65
1010.61 1010.53 1010.53 1010.53 1010.53 1010.49 1010.49 1010.45 1010.37 1010.29 1010.21 1010.13 1010.09 1010.05 1010.01 1010.01 1010.01 1010.05 1010.05 1010.05 1010.05 1010.05 1010.09 1010.21 1010.21 1010.29 1010.41 1010.49 1010.61 1010.73 1010.89 1011.01 1011.17 1011.33 1011.57 1011.77 1011.97 1012.13 1012.29 1012.49 1012.61 1012.81 1013.13 1013.45 1013.61 1013.77 1013.89 1013.97 1014.05 1014.13 1014.21 1014.25 1014.37 1014.53 1014.69 1014.81 1014.93 1015.05 1015.17 1015.29 1015.49 1015.77 1015.97 1016.09 1016.21 1016.37 1016.49 1016.57 1016.65
1010.73 1010.65 1010.61 1010.57 1010.53 1010.53 1010.49 1010.49 1010.41 1010.33 1010.21 1010.17 1010.13 1010.05 1010.01 1009.97 1009.97 1010.01 1010.05 1010.05 1010.05 1010.09 1010.09 1010.09 1010.13 1010.17 1010.21 1010.33 1010.45 1010.57 1010.73 1010.89 1011.05 1011.25 1011.49 1011.73 1011.93 1012.13 1012.29 1012.41 1012.57 1012.73 1012.93 1013.13 1013.33 1013.49 1013.65 1013.81 1013.93 1014.09 1014.21 1014.25 1014.33 1014.41 1014.61 1014.77 1014.85 1014.93 1015.01 1015.21 1015.53 1015.81 1016.01 1016.13 1016.25 1016.37 1016.49 1016.57 1016.69
1010.93 1010.85 1010.77 1010.77 1010.69 1010.65 1010.61 1010.53 1010.49 1010.49 1010.41 1010.37 1010.33 1010.21 1010.13 1010.05 1010.01 1010.01 1010.05 1010.05 1010.09 1010.09 1010.05 1010.09 1010.17 1010.21 1010.37 1010.57 1010.73 1010.77 1010.85 1010.97 1011.17 1011.33 1011.49 1011.69 1011.89 1012.05 1012.25 1012.45 1012.61 1012.77 1012.93 1013.05 1013.21 1013.33 1013.49 1013.65 1013.89 1014.05 1014.21 1014.29 1014.37 1014.49 1014.57 1014.65 1014.65 1014.73 1014.93 1015.29 1015.61 1015.89 1016.05 1016.21 1016.33 1016.41 1016.49 1016.65 1016.77
1011.13 1011.05 1011.01 1010.93 1010.89 1010.77 1010.73 1010.65 1010.65 1010.61 1010.57 1010.53 1010.49 1010.45 1010.37 1010.21 1010.21 1010.17 1010.17 1010.17 1010.13 1010.09 1010.13 1010.21 1010.25 1010.37 1010.57 1010.77 1010.97 1011.05 1011.17 1011.29 1011.45 1011.57 1011.65 1011.77 1011.93 1012.13 1012.33 1012.49 1012.65 1012.77 1012.93 1013.13 1013.29 1013.41 1013.57 1013.77 1013.93 1014.09 1014.25 1014.41 1014.49 1014.53 1014.57 1014.65 1014.61 1014.69 1014.93 1015.29 1015.61 1015.85 1016.09 1016.29 1016.37 1016.49 1016.57 1016.69 1016.77
1011.29 1011.25 1011.21 1011.13 1011.05 1011.01 1010.93 1010.85 1010.73 1010.65 1010.61 1010.53 1010.53 1010.53 1010.49 1010.41 1010.37 1010.37 1010.33 1010.21 1010.21 1010.21 1010.21 1010.29 1010.41 1010.49 1010.65 1010.77 1011.01 1011.21 1011.37 1011.53 1011.73 1011.85 1011.97 1012.09 1012.25 1012.37 1012.49 1012.61 1012.77 1012.89 1013.01 1013.21 1013.37 1013.61 1013.77 1013.93 1014.09 1014.21 1014.37 1014.49 1014.65 1014.73 1014.77 1014.77 1014.77 1014.89 1015.05 1015.33 1015.61 1015.85 1016.09 1016.29 1016.41 1016.49 1016.61 1016.69 1016.85
1011.41 1011.37 1011.33 1011.29 1011.21 1011.17 1011.09 1011.05 1010.93 1010.81 1010.73 1010.65 1010.61 1010.57 1010.53 1010.49 1010.53 1010.49 1010.45 1010.45 1010.41 1010.41 1010.41 1010.45 1010.49 1010.65 1010.73 1010.89 1011.05 1011.25 1011.45 1011.61 1011.77 1011.97 1012.13 1012.33 1012.49 1012.61 1012.69 1012.81 1012.93 1013.05 1013.21 1013.33 1013.53 1013.73 1013.89 1014.05 1014.17 1014.29 1014.41 1014.61 1014.77 1014.89 1014.93 1015.01 1015.05 1015.17 1015.33 1015.53 1015.77 1016.01 1016.17 1016.29 1016.41 1016.53 1016.65 1016.77 1016.93
1011.61 1011.53 1011.49 1011.41 1011.33 1011.29 1011.21 1011.13 1011.05 1010.97 1010.89 1010.81 1010.77 1010.69 1010.65 1010.65 1010.65 1010.61 1010.61 1010.65 1010.65 1010.61 1010.61 1010.61 1010.69 1010.81 1010.93 1011.05 1011.17 1011.33 1011.49 1011.69 1011.93 1012.09 1012.29 1012.49 1012.65 1012.81 1012.93 1013.09 1013.21 1013.33 1013.41 1013.49 1013.65 1013.77 1013.93 1014.13 1014.29 1014.37 1014.53 1014.73 1014.89 1015.05 1015.17 1015.25 1015.33 1015.49 1015.65 1015.81 1016.05 1016.25 1016.37 1016.45 1016.49 1016.61 1016.77 1016.93 1017.01
1011.73 1011.69 1011.61 1011.49 1011.45 1011.37 1011.29 1011.21 1011.09 1011.05 1010.97 1010.93 1010.89 1010.85 1010.81 1010.77 1010.77 1010.77 1010.77 1010.77 1010.77 1010.77 1010.81 1010.89 1010.93 1011.05 1011.13 1011.21 1011.33 1011.49 1011.69 1011.89 1012.17 1012.37 1012.61 1012.77 1012.93 1013.09 1013.29 1013.45 1013.57 1013.65 1013.65 1013.65 1013.73 1013.81 1013.97 1014.21 1014.45 1014.65 1014.81 1014.93 1015.09 1015.21 1015.33 1015.45 1015.57 1015.73 1015.93 1016.09 1016.25 1016.41 1016.53 1016.61 1016.69 1016.81 1016.93 1017.05 1017.09
1011.81 1011.77 1011.73 1011.65 1011.57 1011.45 1011.33 1011.21 1011.13 1011.05 1010.97 1010.93 1010.93 1010.93 1010.93 1010.93 1010.93 1010.97 1011.01 1011.01 1011.05 1011.05 1011.13 1011.13 1011.21 1011.25 1011.33 1011.41 1011.49 1011.65 1011.85 1012.05 1012.33 1012.57 1012.77 1012.93 1013.09 1013.29 1013.53 1013.69 1013.85 1013.93 1013.93 1013.89 1013.93 1013.97 1014.09 1014.33 1014.57 1014.81 1015.05 1015.21 1015.29 1015.41 1015.53 1015.65 1015.77 1015.93 1016.13 1016.33 1016.45 1016.57 1016.69 1016.81 1016.93 1017.05 1017.09 1017.17 1017.21
1011.93 1011.89 1011.81 1011.73 1011.65 1011.49 1011.33 1011.21 1011.13 1011.05 1011.01 1011.01 1011.01 1010.97 1010.97 1011.05 1011.13 1011.21 1011.21 1011.25 1011.33 1011.37 1011.45 1011.45 1011.49 1011.57 1011.65 1011.69 1011.77 1011.85 1011.97 1012.13 1012.33 1012.49 1012.69 1012.93 1013.09 1013.37 1013.65 1013.93 1014.13 1014.25 1014.33 1014.33 1014.29 1014.25 1014.33 1014.49 1014.69 1014.93 1015.21 1015.41 1015.49 1015.61 1015.73 1015.81 1015.93 1016.09 1016.29 1016.45 1016.61 1016.73 1016.85 1017.01 1017.13 1017.21 1017.21 1017.21 1017.29
1012.01 1011.93 1011.89 1011.77 1011.65 1011.49 1011.37 1011.29 1011.21 1011.09 1011.05 1011.05 1011.09 1011.09 1011.13 1011.21 1011.33 1011.37 1011.41 1011.49 1011.57 1011.65 1011.65 1011.69 1011.77 1011.85 1011.89 1011.93 1012.05 1012.09 1012.13 1012.21 1012.25 1012.37 1012.49 1012.73 1012.97 1013.29 1013.61 1013.93 1014.25 1014.49 1014.65 1014.77 1014.73 1014.65 1014.53 1014.61 1014.77 1015.05 1015.29 1015.49 1015.65 1015.77 1015.89 1015.93 1016.05 1016.21 1016.37 1016.49 1016.65 1016.81 1016.97 1017.13 1017.21 1017.25 1017.29 1017.33 1017.41
1012.09 1012.05 1011.93 1011.81 1011.69 1011.57 1011.45 1011.33 1011.25 1011.21 1011.21 1011.21 1011.21 1011.25 1011.33 1011.45 1011.57 1011.61 1011.65 1011.73 1011.81 1011.93 1011.93 1011.93 1012.01 1012.05 1012.09 1012.17 1012.25 1012.29 1012.37 1012.41 1012.41 1012.37 1012.37 1012.53 1012.77 1013.05 1013.33 1013.77 1014.17 1014.53 1014.85 1015.01 1015.05 1014.97 1014.85 1014.81 1014.93 1015.09 1015.29 1015.49 1015.73 1015.93 1016.05 1016.13 1016.21 1016.29 1016.41 1016.49 1016.65 1016.77 1016.93 1017.05 1017.17 1017.21 1017.33 1017.45 1017.57
1012.21 1012.09 1012.01 1011.93 1011.77 1011.65 1011.49 1011.37 1011.33 1011.33 1011.37 1011.41 1011.45 1011.53 1011.65 1011.81 1011.93 1011.97 1012.05 1012.09 1012.13 1012.17 1012.21 1012.21 1012.21 1012.25 1012.33 1012.37 1012.37 1012.45 1012.53 1012.65 1012.69 1012.65 1012.65 1012.69 1012.77 1012.85 1013.01 1013.33 1013.85 1014.37 1014.77 1015.05 1015.21 1015.21 1015.17 1015.09 1015.13 1015.25 1015.45 1015.65 1015.85 1016.05 1016.17 1016.21 1016.29 1016.37 1016.41 1016.49 1016.65 1016.77 1016.93 1017.01 1017.09 1017.21 1017.37 1017.57 1017.73
1012.37 1012.25 1012.13 1012.05 1011.93 1011.77 1011.65 1011.61 1011.53 1011.57 1011.65 1011.65 1011.81 1011.97 1012.13 1012.29 1012.37 1012.41 1012.45 1012.45 1012.49 1012.49 1012.49 1012.49 1012.49 1012.53 1012.61 1012.65 1012.65 1012.69 1012.77 1012.93 1013.01 1013.09 1013.17 1013.25 1013.21 1013.09 1013.05 1013.21 1013.53 1014.01 1014.49 1014.93 1015.29 1015.49 1015.49 1015.37 1015.37 1015.49 1015.65 1015.85 1016.01 1016.17 1016.29 1016.37 1016.37 1016.41 1016.49 1016.61 1016.69 1016.85 1016.97 1017.09 1017.21 1017.33 1017.49 1017.65 1017.77
1012.61 1012.49 1012.37 1012.29 1012.17 1012.05 1012.01 1011.93 1011.89 1011.93 1012.01 1012.09 1012.29 1012.49 1012.61 1012.65 1012.65 1012.65 1012.69 1012.73 1012.77 1012.77 1012.77 1012.81 1012.85 1012.89 1012.93 1012.93 1012.93 1013.05 1013.17 1013.25 1013.41 1013.53 1013.65 1013.77 1013.77 1013.73 1013.61 1013.49 1013.53 1013.69 1014.05 1014.65 1015.17 1015.49 1015.65 1015.65 1015.61 1015.69 1015.85 1015.97 1016.13 1016.25 1016.37 1016.45 1016.49 1016.57 1016.65 1016.77 1016.89 1017.01 1017.13 1017.29 1017.45 1017.57 1017.65 1017.73 1017.81
1012.89 1012.77 1012.69 1012.61 1012.53 1012.49 1012.41 1012.41 1012.37 1012.41 1012.49 1012.57 1012.77 1012.89 1012.93 1012.93 1012.93 1012.93 1012.93 1012.97 1012.97 1012.97 1013.01 1013.05 1013.13 1013.21 1013.21 1013.25 1013.29 1013.37 1013.49 1013.65 1013.77 1013.89 1014.05 1014.17 1014.25 1014.25 1014.17 1014.01 1013.85 1013.85 1014.01 1014.37 1014.85 1015.25 1015.53 1015.65 1015.77 1015.89 1015.97 1016.05 1016.21 1016.37 1016.49 1016.49 1016.61 1016.69 1016.81 1016.93 1017.05 1017.17 1017.33 1017.49 1017.65 1017.73 1017.81 1017.89 1017.97
1013.21 1013.09 1013.05 1012.97 1012.93 1012.93 1012.89 1012.93 1012.93 1012.97 1013.01 1013.09 1013.21 1013.29 1013.33 1013.33 1013.29 1013.29 1013.29 1013.33 1013.33 1013.33 1013.33 1013.33 1013.41 1013.49 1013.57 1013.65 1013.69 1013.77 1013.93 1014.01 1014.13 1014.25 1014.37 1014.49 1014.61 1014.61 1014.53 1014.45 1014.37 1014.41 1014.49 1014.57 1014.69 1014.97 1015.33 1015.65 1015.89 1016.01 1016.09 1016.17 1016.29 1016.41 1016.49 1016.61 1016.69 1016.81 1016.93 1017.05 1017.21 1017.33 1017.49 1017.65 1017.77 1017.89 1017.97 1018.05 1018.13
1013.57 1013.49 1013.45 1013.37 1013.33 1013.33 1013.33 1013.37 1013.41 1013.49 1013.53 1013.57 1013.65 1013.73 1013.77 1013.77 1013.77 1013.73 1013.73 1013.77 1013.77 1013.77 1013.77 1013.77 1013.85 1013.93 1014.01 1014.05 1014.13 1014.25 1014.37 1014.49 1014.57 1014.65 1014.77 1014.81 1014.89 1014.89 1014.85 1014.85 1014.93 1015.05 1015.09 1015.01 1014.85 1014.97 1015.29 1015.73 1015.97 1016.13 1016.21 1016.29 1016.41 1016.49 1016.65 1016.73 1016.85 1016.97 1017.13 1017.25 1017.33 1017.49 1017.65 1017.81 1017.93 1018.05 1018.17 1018.21 1018.29
1013.97 1013.89 1013.85 1013.81 1013.77 1013.77 1013.77 1013.77 1013.85 1013.93 1013.97 1014.01 1014.05 1014.09 1014.17 1014.21 1014.21 1014.17 1014.17 1014.21 1014.21 1014.17 1014.17 1014.21 1014.29 1014.37 1014.41 1014.49 1014.53 1014.65 1014.77 1014.93 1014.93 1015.01 1015.05 1015.09 1015.13 1015.09 1015.09 1015.17 1015.25 1015.37 1015.41 1015.33 1015.21 1015.25 1015.53 1015.89 1016.13 1016.29 1016.41 1016.49 1016.61 1016.69 1016.77 1016.93 1017.05 1017.17 1017.29 1017.45 1017.57 1017.69 1017.81 1017.97 1018.05 1018.21 1018.33 1018.41 1018.49
1014.33 1014.29 1014.21 1014.21 1014.21 1014.21 1014.21 1014.21 1014.25 1014.25 1014.29 1014.33 1014.37 1014.41 1014.49 1014.49 1014.57 1014.57 1014.57 1014.61 1014.57 1014.57 1014.57 1014.65 1014.69 1014.73 1014.77 1014.89 1014.93 1015.01 1015.09 1015.21 1015.25 1015.29 1015.29 1015.33 1015.33 1015.37 1015.45 1015.49 1015.57 1015.65 1015.61 1015.57 1015.53 1015.69 1015.89 1016.13 1016.33 1016.49 1016.57 1016.69 1016.77 1016.89 1016.97 1017.09 1017.21 1017.33 1017.49 1017.61 1017.73 1017.89 1018.01 1018.17 1018.29 1018.41 1018.49 1018.57 1018.65
1014.65 1014.65 1014.57 1014.53 1014.57 1014.61 1014.61 1014.61 1014.61 1014.61 1014.65 1014.65 1014.73 1014.77 1014.77 1014.85 1014.89 1014.93 1014.93 1014.93 1014.93 1014.93 1014.93 1014.97 1015.05 1015.13 1015.17 1015.21 1015.25 1015.29 1015.33 1015.41 1015.45 1015.49 1015.49 1015.53 1015.57 1015.65 1015.77 1015.85 1015.85 1015.85 1015.85 1015.89 1015.97 1016.09 1016.25 1016.41 1016.57 1016.69 1016.77 1016.89 1016.97 1017.05 1017.21 1017.29 1017.37 1017.49 1017.65 1017.77 1017.97 1018.17 1018.33 1018.49 1018.61 1018.69 1018.77 1018.85 1018.93
1014.97 1014.93 1014.89 1014.89 1014.89 1014.89 1014.89 1014.93 1014.93 1014.93 1014.97 1015.05 1015.05 1015.05 1015.09 1015.17 1015.21 1015.21 1015.21 1015.17 1015.17 1015.21 1015.21 1015.25 1015.33 1015.41 1015.45 1015.49 1015.49 1015.49 1015.49 1015.61 1015.65 1015.69 1015.73 1015.77 1015.85 1015.93 1016.01 1016.05 1016.09 1016.09 1016.17 1016.21 1016.37 1016.45 1016.57 1016.69 1016.81 1016.93 1017.01 1017.05 1017.13 1017.21 1017.33 1017.49 1017.61 1017.77 1017.93 1018.09 1018.29 1018.45 1018.57 1018.69 1018.81 1018.93 1019.01 1019.05 1019.13
1015.21 1015.21 1015.21 1015.21 1015.21 1015.21 1015.21 1015.21 1015.21 1015.29 1015.33 1015.33 1015.33 1015.37 1015.41 1015.45 1015.45 1015.45 1015.45 1015.45 1015.45 1015.45 1015.45 1015.49 1015.53 1015.57 1015.61 1015.61 1015.65 1015.69 1015.77 1015.81 1015.89 1015.93 1015.97 1016.05 1016.09 1016.13 1016.17 1016.21 1016.25 1016.33 1016.37 1016.49 1016.57 1016.65 1016.77 1016.85 1016.97 1017.05 1017.13 1017.21 1017.33 1017.45 1017.61 1017.77 1017.93 1018.05 1018.21 1018.33 1018.49 1018.61 1018.73 1018.89 1019.01 1019.13 1019.21 1019.29 1019.33
1015.45 1015.45 1015.45 1015.45 1015.49 1015.49 1015.49 1015.49 1015.53 1015.57 1015.57 1015.61 1015.61 1015.65 1015.65 1015.65 1015.69 1015.69 1015.69 1015.65 1015.65 1015.69 1015.69 1015.73 1015.77 1015.81 1015.81 1015.85 1015.89 1015.93 1015.97 1016.05 1016.13 1016.21 1016.21 1016.21 1016.25 1016.29 1016.33 1016.37 1016.37 1016.45 1016.53 1016.65 1016.73 1016.81 1016.93 1017.01 1017.05 1017.21 1017.33 1017.45 1017.57 1017.73 1017.93 1018.05 1018.21 1018.33 1018.41 1018.53 1018.65 1018.77 1018.93 1019.05 1019.21 1019.33 1019.41 1019.49 1019.57
1015.65 1015.65 1015.65 1015.69 1015.69 1015.73 1015.73 1015.73 1015.77 1015.77 1015.81 1015.85 1015.85 1015.89 1015.93 1015.93 1015.93 1015.93 1015.93 1015.93 1015.93 1015.93 1015.97 1015.97 1016.05 1016.05 1016.09 1016.13 1016.17 1016.21 1016.25 1016.33 1016.37 1016.41 1016.45 1016.45 1016.41 1016.41 1016.45 1016.49 1016.53 1016.65 1016.69 1016.77 1016.81 1016.93 1017.05 1017.21 1017.33 1017.45 1017.61 1017.73 1017.89 1018.01 1018.17 1018.33 1018.45 1018.57 1018.69 1018.77 1018.89 1018.97 1019.09 1019.29 1019.41 1019.53 1019.65 1019.73 1019.73
1015.77 1015.81 1015.85 1015.89 1015.93 1015.93 1015.97 1016.01 1016.05 1016.05 1016.05 1016.09 1016.09 1016.09 1016.13 1016.13 1016.09 1016.09 1016.13 1016.17 1016.17 1016.17 1016.21 1016.25 1016.33 1016.37 1016.41 1016.45 1016.45 1016.49 1016.49 1016.57 1016.61 1016.61 1016.65 1016.65 1016.57 1016.57 1016.61 1016.65 1016.69 1016.77 1016.81 1016.89 1016.97 1017.13 1017.29 1017.45 1017.57 1017.73 1017.85 1018.05 1018.17 1018.33 1018.45 1018.57 1018.69 1018.81 1018.93 1019.05 1019.17 1019.25 1019.33 1019.49 1019.61 1019.69 1019.77 1019.81 1019.85
1016.01 1016.05 1016.05 1016.05 1016.13 1016.17 1016.21 1016.21 1016.25 1016.25 1016.25 1016.29 1016.29 1016.29 1016.29 1016.29 1016.33 1016.37 1016.37 1016.37 1016.37 1016.37 1016.45 1016.49 1016.57 1016.65 1016.65 1016.65 1016.73 1016.77 1016.77 1016.73 1016.77 1016.77 1016.81 1016.77 1016.77 1016.77 1016.77 1016.77 1016.85 1016.93 1017.01 1017.05 1017.21 1017.41 1017.57 1017.69 1017.85 1018.01 1018.17 1018.33 1018.49 1018.61 1018.69 1018.81 1018.93 1019.05 1019.17 1019.29 1019.37 1019.49 1019.57 1019.69 1019.77 1019.85 1019.93 1019.93 1019.97
1016.21 1016.25 1016.29 1016.29 1016.37 1016.37 1016.41 1016.45 1016.49 1016.49 1016.49 1016.49 1016.49 1016.49 1016.49 1016.49 1016.57 1016.61 1016.61 1016.61 1016.61 1016.65 1016.65 1016.73 1016.77 1016.81 1016.85 1016.89 1016.89 1016.93 1016.93 1016.93 1016.93 1016.97 1017.01 1017.01 1017.05 1017.01 1017.01 1017.05 1017.09 1017.21 1017.29 1017.41 1017.57 1017.73 1017.85 1017.97 1018.13 1018.25 1018.41 1018.57 1018.77 1018.89 1019.01 1019.09 1019.21 1019.29 1019.41 1019.49 1019.65 1019.73 1019.77 1019.85 1019.93 1019.97 1020.05 1020.05 1020.09
1016.49 1016.49 1016.53 1016.57 1016.61 1016.65 1016.65 1016.73 1016.77 1016.73 1016.73 1016.73 1016.73 1016.73 1016.73 1016.77 1016.81 1016.81 1016.85 1016.85 1016.85 1016.85 1016.89 1016.85 1016.93 1016.97 1017.01 1017.05 1017.05 1017.05 1017.13 1017.21 1017.25 1017.29 1017.33 1017.33 1017.37 1017.41 1017.41 1017.41 1017.49 1017.57 1017.65 1017.77 1017.89 1018.05 1018.17 1018.29 1018.41 1018.57 1018.69 1018.81 1019.01 1019.17 1019.25 1019.33 1019.41 1019.49 1019.61 1019.73 1019.85 1019.93 1019.97 1020.05 1020.09 1020.17 1020.21 1020.21 1020.21
1016.77 1016.77 1016.77 1016.77 1016.85 1016.93 1016.97 1017.01 1017.01 1017.01 1016.97 1016.93 1016.93 1016.97 1016.97 1017.01 1017.05 1017.09 1017.09 1017.05 1017.05 1017.01 1017.01 1017.01 1017.05 1017.13 1017.21 1017.25 1017.33 1017.41 1017.49 1017.65 1017.73 1017.77 1017.77 1017.85 1017.85 1017.89 1017.93 1017.93 1017.93 1018.01 1018.05 1018.17 1018.25 1018.37 1018.49 1018.61 1018.73 1018.85 1018.97 1019.09 1019.25 1019.37 1019.49 1019.53 1019.61 1019.69 1019.81 1019.93 1020.05 1020.09 1020.21 1020.25 1020.29 1020.33 1020.37 1020.37 1020.37
1016.97 1017.01 1017.05 1017.05 1017.09 1017.17 1017.21 1017.21 1017.25 1017.21 1017.21 1017.21 1017.21 1017.21 1017.25 1017.25 1017.29 1017.33 1017.33 1017.33 1017.29 1017.25 1017.21 1017.21 1017.29 1017.41 1017.53 1017.65 1017.69 1017.77 1017.89 1018.01 1018.05 1018.13 1018.17 1018.21 1018.21 1018.21 1018.25 1018.33 1018.37 1018.45 1018.45 1018.49 1018.61 1018.69 1018.77 1018.89 1019.01 1019.13 1019.25 1019.37 1019.49 1019.65 1019.73 1019.77 1019.85 1019.93 1020.05 1020.13 1020.21 1020.33 1020.37 1020.45 1020.49 1020.53 1020.53 1020.57 1020.57
1017.25 1017.25 1017.29 1017.33 1017.33 1017.41 1017.45 1017.49 1017.49 1017.49 1017.45 1017.45 1017.49 1017.49 1017.49 1017.53 1017.53 1017.57 1017.61 1017.65 1017.61 1017.57 1017.53 1017.57 1017.65 1017.77 1017.85 1017.93 1018.01 1018.09 1018.21 1018.29 1018.37 1018.41 1018.45 1018.49 1018.49 1018.49 1018.53 1018.65 1018.73 1018.77 1018.77 1018.77 1018.89 1018.97 1019.05 1019.17 1019.29 1019.37 1019.49 1019.65 1019.77 1019.85 1019.93 1020.01 1020.09 1020.21 1020.33 1020.41 1020.49 1020.57 1020.65 1020.65 1020.69 1020.69 1020.69 1020.65 1020.61
1017.49 1017.49 1017.49 1017.53 1017.57 1017.65 1017.65 1017.69 1017.69 1017.65 1017.65 1017.69 1017.73 1017.73 1017.77 1017.77 1017.77 1017.81 1017.85 1017.89 1017.85 1017.85 1017.89 1017.93 1018.01 1018.09 1018.17 1018.21 1018.33 1018.37 1018.49 1018.57 1018.65 1018.73 1018.77 1018.77 1018.77 1018.77 1018.81 1018.93 1019.05 1019.05 1019.05 1019.09 1019.17 1019.25 1019.33 1019.45 1019.57 1019.65 1019.77 1019.89 1020.01 1020.09 1020.21 1020.25 1020.37 1020.45 1020.53 1020.65 1020.73 1020.77 1020.77 1020.81 1020.77 1020.77 1020.69 1020.57 1020.49
1017.69 1017.69 1017.73 1017.77 1017.81 1017.85 1017.89 1017.89 1017.89 1017.89 1017.89 1017.93 1017.93 1017.97 1018.01 1018.05 1018.09 1018.09 1018.13 1018.13 1018.09 1018.13 1018.17 1018.25 1018.33 1018.37 1018.49 1018.53 1018.61 1018.69 1018.77 1018.89 1018.93 1019.05 1019.09 1019.09 1019.05 1019.09 1019.17 1019.25 1019.33 1019.37 1019.37 1019.41 1019.49 1019.57 1019.65 1019.77 1019.85 1019.97 1020.05 1020.17 1020.25 1020.37 1020.45 1020.49 1020.61 1020.65 1020.73 1020.77 1020.77 1020.77 1020.77 1020.77 1020.69 1020.65 1020.61 1020.53 1020.49
1017.93 1017.93 1017.93 1018.01 1018.05 1018.05 1018.09 1018.13 1018.13 1018.13 1018.17 1018.21 1018.21 1018.25 1018.29 1018.33 1018.37 1018.37 1018.41 1018.41 1018.37 1018.41 1018.49 1018.57 1018.65 1018.73 1018.81 1018.89 1018.93 1019.05 1019.13 1019.21 1019.25 1019.33 1019.37 1019.37 1019.37 1019.37 1019.45 1019.53 1019.65 1019.65 1019.65 1019.69 1019.77 1019.85 1019.93 1020.01 1020.09 1020.21 1020.29 1020.37 1020.45 1020.53 1020.57 1020.61 1020.65 1020.69 1020.69 1020.69 1020.65 1020.65 1020.65 1020.61 1020.61 1020.61 1020.65 1020.65 1020.65
1018.25 1018.25 1018.29 1018.33 1018.37 1018.37 1018.41 1018.37 1018.37 1018.37 1018.41 1018.45 1018.45 1018.49 1018.49 1018.53 1018.61 1018.65 1018.65 1018.65 1018.65 1018.73 1018.81 1018.93 1019.01 1019.09 1019.17 1019.21 1019.33 1019.37 1019.49 1019.49 1019.49 1019.53 1019.61 1019.65 1019.65 1019.65 1019.65 1019.77 1019.81 1019.89 1019.93 1019.93 1019.97 1020.05 1020.13 1020.21 1020.29 1020.37 1020.37 1020.41 1020.45 1020.45 1020.45 1020.49 1020.49 1020.53 1020.57 1020.61 1020.61 1020.61 1020.61 1020.61 1020.61 1020.65 1020.65 1020.77 1020.85
1018.53 1018.57 1018.57 1018.57 1018.65 1018.65 1018.65 1018.65 1018.61 1018.65 1018.65 1018.65 1018.65 1018.69 1018.77 1018.77 1018.81 1018.89 1018.93 1018.93 1018.93 1018.97 1019.05 1019.13 1019.21 1019.33 1019.41 1019.49 1019.53 1019.65 1019.69 1019.69 1019.69 1019.69 1019.73 1019.77 1019.81 1019.81 1019.85 1019.93 1019.97 1020.05 1020.09 1020.09 1020.13 1020.17 1020.21 1020.29 1020.33 1020.37 1020.37 1020.37 1020.33 1020.33 1020.37 1020.37 1020.45 1020.49 1020.49 1020.57 1020.57 1020.61 1020.61 1020.61 1020.61 1020.65 1020.69 1020.77 1020.93
1018.77 1018.77 1018.77 1018.77 1018.77 1018.81 1018.81 1018.81 1018.81 1018.85 1018.89 1018.89 1018.93 1018.93 1018.93 1018.97 1019.05 1019.05 1019.09 1019.13 1019.17 1019.21 1019.21 1019.33 1019.41 1019.49 1019.53 1019.61 1019.65 1019.73 1019.77 1019.85 1019.89 1019.89 1019.93 1019.93 1019.97 1019.97 1020.01 1020.05 1020.09 1020.13 1020.17 1020.21 1020.21 1020.21 1020.25 1020.29 1020.33 1020.29 1020.25 1020.25 1020.25 1020.29 1020.33 1020.37 1020.41 1020.45 1020.49 1020.49 1020.49 1020.53 1020.57 1020.57 1020.61 1020.61 1020.65 1020.65 1020.77
1018.81 1018.85 1018.85 1018.85 1018.93 1018.93 1018.97 1019.01 1019.01 1019.05 1019.05 1019.05 1019.05 1019.05 1019.09 1019.09 1019.17 1019.21 1019.21 1019.25 1019.29 1019.33 1019.41 1019.49 1019.57 1019.65 1019.65 1019.73 1019.77 1019.85 1019.93 1019.97 1020.01 1020.05 1020.05 1020.05 1020.05 1020.05 1020.05 1020.05 1020.13 1020.17 1020.21 1020.21 1020.21 1020.25 1020.29 1020.33 1020.33 1020.33 1020.29 1020.29 1020.29 1020.29 1020.29 1020.37 1020.37 1020.37 1020.41 1020.45 1020.49 1020.49 1020.53 1020.53 1020.57 1020.57 1020.57 1020.61 1020.65
Wind_Speed
2 3 3 3 4 4 4 5 5 5 5 5 5 6 6 6 6 5 5 5 5 4 4 4 5 6 7 9 10 10 10 9 8 7 7 6 7 7 6 6 5 5 4 3 1 1 2 3 3 3 3 4 4 4 3 3 4 4 5 5 4 4 5 5 6 6 6 6 4
1 1 1 2 3 3 4 4 4 5 5 5 5 5 5 5 5 5 5 5 5 5 4 4 5 6 8 9 10 10 9 9 9 7 6 5 6 6 5 3 4 5 6 4 3 3 3 4 4 3 3 4 5 5 4 4 5 5 6 6 5 4 4 5 5 6 5 5 4
4 3 2 1 1 2 2 3 4 5 6 5 5 5 5 5 5 5 5 5 5 6 5 5 5 7 8 9 9 9 9 9 8 7 6 6 6 5 5 4 4 6 7 7 6 6 5 5 5 4 4 4 5 5 5 5 5 6 6 6 4 3 3 4 5 4 4 3 4
6 5 5 4 4 4 3 2 3 4 5 4 5 5 5 4 4 4 5 5 6 6 6 6 6 6 6 5 5 6 6 6 6 6 6 6 6 6 6 6 6 6 7 8 8 8 7 7 5 4 4 4 5 5 5 5 6 5 4 4 3 3 3 3 4 4 3 3 4
7 7 6 6 6 6 5 4 5 5 5 4 5 5 5 4 4 4 5 5 5 5 6 6 6 5 4 4 3 2 2 2 2 3 4 5 6 6 6 7 6 6 6 7 8 8 8 7 4 3 3 3 4 4 4 5 6 5 4 3 3 2 2 3 3 3 3 3 3
7 7 7 7 7 6 5 5 5 5 4 4 4 5 5 4 4 5 5 5 5 5 5 5 5 4 3 3 3 2 2 3 3 3 3 4 3 4 5 6 6 6 6 6 7 7 6 5 3 2 2 2 2 2 3 5 5 5 5 4 3 3 3 3 3 3 3 4 4
7 7 7 7 7 7 7 7 6 5 4 3 4 4 5 5 5 6 6 6 6 5 5 4 4 4 3 2 2 2 1 2 2 2 2 2 1 0 2 3 4 4 4 4 4 4 4 3 2 1 1 1 1 1 2 4 4 4 5 4 4 4 4 4 3 3 4 6 6
7 7 7 7 7 7 8 8 7 6 5 4 5 5 6 6 6 6 6 6 6 5 5 4 5 5 4 2 1 0 0 0 0 0 1 2 1 1 1 2 2 2 2 3 3 3 3 2 2 2 2 2 1 1 2 4 4 4 4 5 4 3 4 4 3 4 5 6 7
7 7 7 7 7 7 7 7 7 6 6 6 6 7 7 7 7 6 6 5 5 5 5 5 5 4 4 3 2 1 1 2 2 2 2 3 2 2 2 3 3 3 3 4 4 4 4 2 2 2 2 2 2 2 3 4 5 5 5 4 4 4 4 4 4 4 5 6 7
7 7 7 7 7 7 7 7 6 6 6 6 7 7 7 7 7 6 6 5 5 5 5 5 4 4 3 2 2 2 3 4 4 4 4 4 4 4 4 3 3 2 2 3 3 4 4 3 3 4 4 4 4 3 4 4 5 5 5 4 4 5 5 4 4 5 5 5 6
7 7 7 7 7 7 7 6 6 5 5 5 6 6 6 6 7 7 6 6 6 6 6 6 5 4 3 3 3 3 4 5 5 5 5 5 5 5 4 4 3 2 2 3 3 4 4 4 5 5 5 4 4 4 5 5 6 6 6 5 5 6 6 5 5 4 5 5 6
7 7 7 7 7 7 6 6 5 5 5 5 6 6 6 6 7 7 7 7 7 6 6 6 5 4 4 3 3 4 5 6 6 6 6 5 5 5 5 4 4 4 4 5 4 4 4 5 6 6 6 5 4 4 5 6 6 6 6 6 6 6 6 6 5 4 4 5 7
7 7 7 7 7 7 6 5 5 4 5 5 6 6 6 7 7 8 7 7 7 6 5 5 4 4 3 3 3 3 4 5 5 6 6 6 7 7 7 6 5 5 6 5 5 4 5 6 7 7 7 6 5 5 5 6 6 6 6 7 6 6 6 6 6 5 5 6 6
7 7 7 7 7 6 6 5 5 4 5 6 6 6 7 7 8 8 7 7 6 5 5 4 4 3 3 2 1 1 1 2 3 4 5 6 8 9 9 8 7 6 6 5 5 5 6 6 7 7 7 7 6 6 6 6 6 6 6 6 7 7 7 7 7 7 7 7 7
8 8 8 8 7 7 6 6 5 5 5 6 7 7 8 7 8 8 8 7 6 6 5 5 4 4 4 4 3 2 1 1 1 2 4 6 9 10 11 11 10 8 7 6 6 6 6 7 7 7 7 8 7 7 6 6 5 6 6 6 7 7 7 7 7 7 8 8 8
8 8 8 8 8 7 7 6 5 5 6 6 8 8 8 7 7 7 7 7 6 6 6 6 6 6 6 6 6 5 4 3 3 3 4 5 7 8 10 12 12 11 9 8 7 6 6 7 7 8 8 8 7 7 7 6 6 6 6 6 7 7 7 8 7 8 8 9 8
9 9 9 9 9 9 8 8 7 7 7 8 9 8 7 6 6 6 6 6 5 5 6 6 6 6 6 6 7 7 6 6 5 4 4 4 5 6 8 10 11 12 12 10 8 7 7 7 7 8 8 8 7 7 7 7 7 7 7 7 7 7 7 7 7 8 8 8 9
10 10 10 10 10 10 10 10 9 9 9 9 9 8 7 7 7 7 7 7 7 6 6 7 7 7 7 7 7 6 6 6 6 5 5 5 5 5 6 8 9 11 11 11 10 9 8 8 8 7 7 8 7 7 7 7 7 7 7 7 7 7 7 7 7 7 7 7 8
10 10 11 11 11 11 10 10 10 10 10 10 9 9 9 9 9 9 8 9 8 8 8 8 8 8 8 8 8 8 7 7 7 7 7 6 6 7 7 8 9 9 10 10 11 10 10 8 7 7 7 7 7 7 7 7 7 7 7 7 7 7 7 7 6 6 6 6 7
11 11 11 11 11 11 10 10 10 10 10 9 10 10 10 11 10 10 10 10 10 10 10 10 9 9 9 9 9 9 8 7 8 8 8 8 8 8 8 9 8 8 8 9 10 10 10 8 7 7 7 7 8 8 7 7 7 7 7 7 7 7 7 6 6 5 5 5 6
11 11 11 11 11 10 10 10 10 10 10 10 10 10 10 10 10 10 10 10 10 10 10 10 10 10 9 9 9 9 8 7 8 8 9 9 9 8 8 8 7 7 7 8 9 9 9 8 7 7 7 7 8 8 7 7 7 7 7 6 7 7 7 6 6 5 5 5 5
10 10 10 10 10 10 10 10 10 10 10 10 10 10 10 10 10 10 10 10 10 10 11 10 10 10 10 9 9 9 8 7 8 8 8 8 8 8 8 7 7 7 7 8 8 8 8 8 8 7 7 7 7 7 7 7 7 7 7 7 7 7 7 7 6 6 5 5 5
10 9 9 9 10 10 10 10 10 10 10 10 10 10 10 10 10 9 10 10 10 10 10 10 10 10 10 9 9 9 9 8 8 8 8 8 8 8 7 7 7 7 7 7 7 7 7 7 7 7 7 7 7 7 7 7 7 7 8 8 9 9 8 8 7 7 7 6 6
9 9 9 8 10 10 10 10 10 10 10 10 10 9 9 9 9 9 9 10 10 10 9 8 8 9 9 9 9 9 9 9 9 8 8 8 8 8 7 7 7 7 6 6 6 6 6 6 5 6 6 6 6 6 7 7 7 8 8 9 9 9 8 8 8 7 7 7 7
9 9 9 9 10 10 10 10 10 9 9 9 9 9 9 8 8 9 9 9 10 10 9 9 8 8 8 8 9 9 9 9 9 9 8 8 8 8 7 6 6 6 5 6 8 8 8 7 5 5 5 5 6 6 7 7 8 8 8 8 8 8 8 8 8 8 8 7 7
9 9 9 9 9 10 9 9 9 9 8 8 8 8 8 8 8 8 9 9 9 9 9 9 8 8 8 8 8 9 8 8 8 8 8 8 8 8 7 6 5 5 5 7 9 10 10 10 9 7 6 6 7 7 7 7 8 8 8 8 8 8 8 8 8 8 7 7 7
9 9 9 9 9 9 9 9 8 8 8 8 8 8 8 8 8 8 9 9 9 8 8 8 8 8 8 8 9 9 8 8 8 8 8 8 8 8 7 6 5 5 5 8 10 11 12 12 12 11 9 7 7 7 7 7 8 8 8 8 8 8 8 8 7 7 6 6 6
8 9 9 9 9 9 9 8 8 8 8 8 8 8 8 8 8 8 8 8 8 8 7 7 7 6 6 6 8 8 8 8 7 7 7 8 8 8 8 6 5 6 8 11 13 13 14 14 14 13 12 9 8 7 7 7 7 7 7 7 7 7 7 7 6 6 6 5 5
9 9 9 9 9 8 8 8 8 8 8 8 8 8 8 9 9 9 9 8 8 8 7 6 5 5 5 6 7 8 8 8 7 7 7 8 8 8 8 7 7 9 12 15 15 15 14 14 14 14 13 11 8 6 6 6 6 6 6 6 6 6 6 6 5 5 5 5 5
8 8 8 8 8 8 8 8 8 8 7 7 8 9 9 9 9 9 9 9 9 8 7 6 6 6 7 7 7 7 7 7 7 7 8 8 9 9 9 9 9 11 13 16 16 15 15 15 15 15 14 13 10 7 6 6 6 6 6 6 6 6 6 6 5 5 5 4 5
8 8 8 8 8 8 8 8 8 8 8 8 8 9 9 9 9 9 9 8 8 8 8 8 8 8 8 7 8 8 9 9 9 10 10 11 11 12 11 11 11 12 14 16 16 15 15 15 15 15 15 14 10 8 6 6 6 6 6 6 6 6 6 6 5 5 5 5 5
8 8 8 8 8 8 8 8 8 8 8 9 9 9 9 9 9 9 8 8 8 8 8 9 9 9 9 9 10 11 12 12 12 12 12 12 13 13 13 12 12 13 14 16 16 16 16 16 16 16 15 14 11 9 7 7 7 7 7 7 7 7 6 5 5 5 5 5 4
8 8 8 8 8 8 8 8 8 8 8 9 9 9 9 9 8 8 8 7 7 8 9 9 10 10 11 11 12 12 13 13 13 13 13 12 13 13 12 11 10 12 14 16 16 16 16 16 16 16 15 14 10 8 7 7 7 6 7 7 7 7 6 6 5 4 3 2 1
8 8 8 8 8 8 7 7 7 8 8 9 9 9 8 8 8 8 8 8 8 8 9 10 10 10 10 11 11 11 11 11 11 12 12 12 12 13 12 9 8 11 14 16 16 16 16 16 16 16 15 13 9 8 8 8 7 6 6 6 6 5 5 4 3 2 1 1 2
7 7 7 8 7 7 7 7 7 8 8 8 8 8 8 8 9 8 8 8 8 9 9 10 10 10 10 11 11 12 12 11 11 11 11 11 12 12 12 10 10 12 15 16 16 16 16 16 16 15 14 11 8 7 7 8 7 7 6 6 5 4 3 2 1 1 1 1 1
7 7 7 7 7 7 7 7 7 8 8 8 8 9 9 8 8 8 8 9 9 9 9 9 10 10 10 10 10 11 11 11 11 11 11 11 11 11 11 11 11 12 14 15 15 15 15 15 14 13 12 9 7 6 6 6 5 5 5 5 4 4 3 3 2 2 1 2 3
7 7 7 7 7 7 7 7 8 8 8 8 8 8 8 8 8 8 8 8 9 9 10 10 10 10 10 10 10 10 10 10 11 10 10 10 10 10 10 10 10 11 12 13 14 14 13 13 13 11 9 7 5 5 5 4 4 4 4 4 4 4 3 2 2 2 3 4 4
8 8 8 8 7 7 7 7 7 7 7 7 8 8 8 8 7 7 7 8 9 9 10 10 10 10 10 10 10 10 9 9 10 10 9 9 9 10 10 10 9 9 10 11 12 12 12 11 11 9 7 5 5 4 4 4 4 4 4 3 3 3 2 2 2 2 3 4 4
7 7 7 7 7 7 7 7 7 6 6 7 7 7 7 7 7 7 7 8 8 9 9 9 9 9 9 10 10 9 9 9 9 9 8 8 8 9 9 9 8 8 8 10 10 10 10 9 8 7 6 4 4 3 3 3 3 3 3 3 3 2 2 2 1 2 2 3 3
6 6 6 6 7 7 7 7 6 6 6 6 7 7 7 7 7 7 7 7 8 9 9 9 9 9 9 9 9 9 9 8 8 8 7 7 8 9 9 8 8 7 8 9 9 9 8 7 6 5 4 3 3 2 2 2 3 3 3 2 2 2 1 1 1 1 1 2 2
6 6 6 7 7 7 7 7 6 6 6 6 6 6 7 7 7 7 7 7 8 8 8 8 9 9 9 8 8 8 8 8 8 7 6 7 7 8 8 7 7 7 7 7 8 7 7 6 5 4 3 2 2 2 2 2 2 2 2 2 2 2 1 1 1 1 1 1 1
Wind_Direction
266 263 263 265 269 274 278 282 285 286 285 282 278 274 272 270 267 262 257 252 246 236 223 216 218 224 229 232 235 237 240 240 241 241 239 237 239 240 244 251 252 257 262 269 223 155 154 159 155 150 149 155 167 179 181 163 161 167 176 185 194 203 211 215 217 216 212 207 201
29 347 291 270 265 265 267 269 272 274 275 275 276 277 278 278 277 275 271 266 262 254 244 233 226 225 226 226 227 228 230 231 230 230 230 229 233 231 227 220 223 232 235 227 185 171 174 176 176 171 163 162 171 177 179 172 168 172 180 186 188 192 199 208 210 208 202 197 187
35 34 29 11 312 282 271 267 268 267 266 267 268 269 270 271 273 274 274 273 270 267 261 253 245 239 234 229 226 224 225 225 222 218 215 214 218 212 198 176 186 198 205 203 188 182 182 183 185 184 179 175 176 178 179 175 173 173 178 184 184 185 191 202 200 196 189 183 177
23 24 24 23 15 5 350 328 308 297 291 288 284 278 274 272 271 271 271 271 270 269 268 268 266 263 259 255 245 237 231 228 224 219 215 214 209 200 189 181 183 186 187 187 185 184 185 184 184 184 184 184 180 179 178 173 169 164 163 173 174 179 186 192 187 183 178 175 174
13 12 12 12 10 10 7 1 350 343 337 329 318 308 300 293 285 278 273 270 269 271 274 279 286 297 313 332 322 305 284 270 258 247 240 234 220 207 198 193 194 192 190 188 187 189 189 184 180 179 185 188 190 186 176 161 152 145 140 146 151 159 165 168 169 169 167 164 161
7 7 6 3 1 0 0 360 356 353 347 337 325 319 315 314 310 303 295 286 283 284 289 296 306 320 345 22 26 18 2 353 339 310 285 270 250 223 208 204 205 202 198 196 194 193 190 180 169 164 170 182 206 194 170 150 142 138 136 139 143 145 147 153 152 150 150 151 148
2 4 4 360 358 356 354 352 347 342 337 328 323 321 321 321 318 315 312 309 308 310 314 318 317 319 330 39 62 59 36 12 352 333 329 355 6 242 212 207 209 204 196 187 181 178 175 166 153 148 156 170 185 169 156 147 142 140 140 142 138 137 139 143 140 141 146 152 150
0 2 1 358 357 355 351 348 342 338 335 331 331 330 330 331 327 324 322 321 322 323 323 321 323 325 329 345 19 67 119 155 152 107 76 69 80 122 158 147 152 142 129 127 129 139 148 148 152 146 135 121 99 112 136 146 141 137 134 133 124 123 127 129 132 139 147 152 153
359 360 358 356 355 352 347 344 340 337 335 336 336 338 339 342 341 337 334 333 332 328 324 323 336 343 345 342 335 350 55 95 92 92 92 94 92 82 71 68 82 90 97 107 122 136 142 129 117 99 88 83 83 92 111 132 127 123 120 119 113 112 113 117 125 134 145 152 155
359 358 356 354 352 347 342 339 335 335 337 340 340 342 345 350 351 350 348 347 344 341 338 339 351 355 357 2 21 49 69 79 77 74 71 68 60 49 39 32 42 65 94 110 124 128 124 103 84 73 71 71 83 92 102 111 114 110 106 102 107 108 108 108 114 125 136 145 149
359 357 353 350 346 341 336 334 332 335 340 346 346 348 353 0 3 2 358 354 355 356 356 356 0 3 9 29 55 78 88 91 90 84 74 60 53 44 35 28 28 39 60 74 85 89 89 86 84 81 78 75 83 92 97 99 103 101 98 96 104 108 109 109 111 117 125 131 132
356 354 350 346 340 336 333 332 332 336 344 352 352 355 1 11 12 8 2 359 1 4 7 9 13 19 29 48 69 89 102 108 110 106 98 86 79 72 65 56 50 48 48 49 58 68 78 84 88 88 84 78 77 85 94 99 100 100 101 105 109 113 117 121 122 122 124 126 127
352 350 346 343 338 335 333 332 332 339 348 356 356 359 7 15 14 9 4 6 5 6 10 17 24 32 45 62 78 97 113 125 131 131 128 120 113 107 100 87 72 59 50 45 51 64 79 88 93 95 94 90 86 87 92 98 102 106 111 115 119 123 127 131 131 130 128 129 130
349 348 345 342 338 336 335 336 336 346 355 356 357 4 10 14 13 9 7 12 11 10 10 12 19 23 27 34 49 104 155 167 173 167 155 143 132 125 118 109 95 79 63 51 54 64 78 89 95 98 99 97 94 92 92 96 104 113 120 126 130 132 134 137 136 134 132 133 133
349 349 348 345 342 341 341 341 344 354 1 360 5 11 15 13 13 11 10 13 14 15 16 16 21 24 22 16 7 358 336 253 203 167 147 137 133 129 125 120 111 99 84 67 61 63 72 84 91 94 95 95 95 96 98 102 110 119 126 132 134 135 136 136 136 135 135 136 137
352 353 352 350 348 348 349 349 354 2 8 10 17 19 18 14 13 15 16 17 19 22 25 27 30 31 31 30 31 32 34 36 53 83 104 115 121 123 122 121 117 110 101 88 78 72 74 80 87 92 96 100 103 106 109 113 117 121 125 129 130 131 132 133 133 135 137 139 139
357 358 358 357 356 358 359 1 4 9 14 20 24 23 20 15 16 20 25 26 28 33 38 40 40 38 37 38 41 43 44 44 48 57 70 84 98 108 114 117 115 113 110 106 100 93 88 86 91 96 102 108 111 115 117 118 117 119 120 122 124 125 128 130 133 136 137 137 137
3 3 3 4 4 6 8 10 12 15 18 24 27 25 22 20 21 25 29 31 31 37 44 49 49 47 44 44 46 48 49 50 51 54 59 68 77 86 94 100 104 107 111 113 112 109 104 100 102 105 109 112 114 115 115 114 113 113 115 117 119 121 124 128 131 133 135 135 135
6 7 8 9 10 12 15 18 19 21 22 27 29 28 27 26 26 29 32 34 33 36 40 47 47 47 47 48 50 51 51 54 57 59 61 63 67 70 74 79 87 95 105 113 114 113 111 109 111 113 114 114 112 111 110 108 109 110 112 114 117 120 123 125 126 127 128 129 129
10 11 12 13 15 17 21 24 27 28 29 31 33 33 33 31 32 33 35 37 37 40 43 47 48 48 49 52 55 55 55 55 59 62 64 64 66 68 71 76 82 89 98 106 108 109 110 111 113 113 112 112 112 112 111 109 110 111 112 113 116 118 121 122 123 121 118 115 116
12 13 15 17 19 22 25 29 32 34 36 37 38 39 39 38 37 38 39 41 43 46 48 50 51 51 53 54 58 60 60 59 61 64 67 68 69 70 74 80 84 88 92 94 97 101 104 108 109 110 110 111 114 115 115 114 115 115 115 114 115 116 116 116 114 111 110 109 110
14 15 17 21 24 26 29 33 34 36 39 40 41 42 43 43 43 43 44 46 48 50 52 53 52 53 55 57 60 63 65 65 66 67 70 72 72 72 73 77 81 82 82 82 86 91 97 102 105 108 110 112 114 115 116 118 118 118 115 111 107 101 96 90 86 83 85 91 93
16 17 21 26 29 31 33 36 37 38 39 40 42 44 45 46 46 48 49 52 54 56 57 58 58 58 60 62 65 69 71 73 73 72 73 74 74 73 71 71 72 73 74 76 81 86 92 97 101 105 109 111 114 116 117 118 115 110 104 98 92 87 81 76 72 69 69 72 74
20 23 26 31 33 35 37 39 40 41 41 42 44 46 48 49 50 52 55 58 60 62 64 65 65 66 68 69 71 73 75 76 77 75 74 72 72 71 69 68 67 68 70 76 84 90 94 98 101 104 106 108 110 110 109 106 101 97 94 92 89 85 81 75 71 70 71 71 71
28 31 33 36 37 39 40 42 43 44 45 46 48 49 51 52 53 56 59 62 64 65 67 69 70 71 72 73 74 74 74 74 74 74 73 72 72 70 69 67 67 69 75 84 94 98 100 102 102 101 99 97 94 92 91 89 90 91 92 93 91 88 83 76 72 69 68 67 66
35 38 39 40 41 43 44 45 46 47 48 50 51 53 54 55 57 59 61 63 64 65 66 67 68 69 69 71 72 72 72 72 72 73 74 75 75 73 72 71 71 75 83 94 100 101 100 98 94 90 85 82 82 82 82 82 84 85 87 87 87 85 82 78 74 70 67 65 64
41 44 44 45 47 47 48 49 50 51 52 53 54 56 57 58 60 61 62 63 64 64 63 63 64 64 66 68 69 71 72 73 73 74 76 78 79 79 78 77 79 85 94 102 99 96 92 89 86 82 78 76 76 78 79 80 79 78 77 78 78 79 79 79 76 73 69 66 63
44 47 49 50 51 51 52 53 54 55 55 57 58 59 61 62 62 62 62 62 62 61 60 58 58 59 62 65 69 72 74 76 77 78 79 81 83 84 85 85 88 93 96 96 92 89 87 86 85 83 81 77 76 76 76 77 76 73 71 71 72 73 75 77 76 75 72 68 64
47 49 52 53 54 54 54 54 55 56 57 59 60 60 60 61 60 60 61 62 62 62 61 59 59 62 64 68 71 74 76 77 80 81 82 83 85 86 88 89 89 90 89 88 87 87 87 88 88 86 83 79 75 72 71 72 72 71 70 69 69 71 73 74 74 74 73 71 67
48 51 53 55 56 56 55 54 55 56 56 58 59 60 60 60 60 61 62 64 65 66 67 69 71 72 74 77 79 79 79 78 78 78 79 79 78 78 78 78 80 82 84 85 86 87 88 89 88 86 84 80 77 74 71 71 72 72 72 71 71 71 72 73 74 74 73 72 69
48 51 54 56 56 55 54 53 53 55 56 59 60 62 63 64 64 65 66 68 71 74 77 80 81 81 80 79 76 73 70 65 62 61 62 64 64 64 64 65 68 74 79 82 84 86 87 88 87 86 84 81 78 75 73 73 73 73 73 72 71 71 70 71 70 70 70 69 68
47 50 54 56 56 55 54 54 54 57 59 62 64 65 66 67 67 67 67 69 73 77 80 81 80 77 74 70 68 66 65 64 62 61 61 62 62 61 60 60 63 70 76 80 83 85 86 87 86 85 83 81 78 75 73 73 73 73 72 70 69 67 66 65 65 66 66 67 67
47 50 53 56 57 56 56 56 58 61 63 65 66 67 68 69 68 66 64 63 66 69 71 72 72 71 70 70 71 72 72 72 71 70 69 69 69 67 65 63 65 71 77 81 83 85 85 86 85 84 82 79 77 74 71 72 71 71 70 68 65 63 63 64 65 66 68 77 97
50 52 55 57 59 60 60 61 63 65 67 69 69 69 69 70 69 68 65 63 63 64 66 68 70 72 74 76 78 78 77 75 73 72 71 72 73 72 70 66 67 73 77 81 83 83 84 84 83 82 80 77 74 72 71 73 72 72 71 70 68 66 64 64 70 84 136 190 199
51 56 58 61 62 63 65 66 68 70 71 72 72 71 71 71 72 72 72 72 71 71 70 71 73 75 77 79 79 79 78 76 74 73 73 74 75 74 73 70 70 73 76 79 80 81 82 82 82 80 78 75 73 72 74 75 77 78 80 82 84 89 97 116 148 176 194 202 228
51 57 61 63 64 65 66 68 71 72 73 74 74 74 73 73 73 74 76 77 76 74 73 72 73 74 75 75 76 77 77 77 77 76 75 75 76 76 75 72 71 73 75 79 80 81 82 83 83 82 81 78 78 79 81 84 88 95 103 111 122 136 151 163 162 146 93 45 23
50 56 60 63 62 63 63 66 69 71 72 73 75 75 76 75 74 73 74 77 76 75 73 72 71 71 71 71 71 72 74 78 80 79 78 77 78 79 79 77 75 75 78 82 84 85 87 88 89 89 89 89 93 98 103 109 116 124 129 132 135 138 140 137 117 87 63 47 30
54 57 60 62 61 60 60 63 66 67 70 72 75 76 77 77 75 74 74 76 78 78 77 75 74 74 74 75 75 75 76 80 83 83 83 81 83 85 86 85 83 83 85 89 92 94 96 99 101 104 107 112 118 124 126 126 126 126 125 123 119 115 108 98 85 75 69 62 44
62 63 65 65 64 63 63 63 63 65 68 72 75 77 78 79 78 77 77 78 82 84 84 83 82 83 84 86 86 84 82 84 86 87 87 88 90 93 94 95 95 96 98 100 103 105 108 111 115 120 124 127 128 127 121 115 114 113 114 115 114 111 105 96 86 83 86 89 81
74 73 73 72 72 71 70 68 66 68 71 75 77 80 82 84 84 84 84 84 86 87 88 89 90 91 92 92 92 90 89 88 88 89 92 96 98 100 101 103 105 107 109 109 109 110 111 112 113 114 114 114 113 110 107 108 109 110 109 110 110 107 98 88 79 72 81 96 105
87 85 84 83 83 82 81 80 80 82 83 83 85 88 91 92 93 93 93 92 92 92 92 93 94 95 95 94 93 93 93 94 95 97 102 107 108 108 107 107 109 110 110 109 106 103 98 93 85 76 71 73 86 94 97 97 92 84 77 67 59 52 45 34 32 27 27 36 66